Location: Bonac
(42.8765°N, 0.9753°E)
Time: 22:56:39
(UTC+00:00)

Cosmos 1656 - Visible Passes

Search period start: 18 April 2026 00:00
Search period end: 28 April 2026 00:00
Orbit: 798 x 846 km, 71.1° (Epoch: 18 April)

Date Brightness Start Highest point End Pass type
(mag) Time Alt. Az. Time Alt. Az. Time Alt. Az.
18 Apr 5.7 00:25:44 10° NW 00:27:19 19° NW 00:27:19 19° NW visible
18 Apr 5.2 22:21:29 10° N 22:25:18 25° NE 22:25:18 25° NE visible
19 Apr 5.5 00:04:36 10° NW 00:06:41 23° NW 00:06:41 23° NW visible
19 Apr 5.3 22:00:38 10° N 22:04:40 23° NE 22:04:40 23° NE visible
19 Apr 5.3 23:43:30 10° NNW 23:46:04 28° NW 23:46:04 28° NW visible
20 Apr 5.4 21:39:48 10° N 21:43:44 20° NE 21:44:05 20° NE visible
20 Apr 5.0 23:22:25 10° NNW 23:25:28 34° NW 23:25:28 34° NW visible
21 Apr 5.5 21:19:00 10° N 21:22:34 17° NE 21:23:30 17° ENE visible
21 Apr 4.7 23:01:21 10° NNW 23:04:54 42° NNW 23:04:54 42° NNW visible
22 Apr 5.6 20:58:17 10° N 21:01:23 15° NE 21:02:57 14° ENE visible
22 Apr 4.3 22:40:19 10° NNW 22:44:21 51° NNW 22:44:21 51° NNW visible
23 Apr 5.7 20:37:39 10° NNE 20:40:11 13° NE 20:42:25 11° ENE visible
23 Apr 4.0 22:19:18 10° NNW 22:23:49 59° N 22:23:49 59° N visible
24 Apr 6.1 00:04:37 10° WNW 00:05:13 12° WNW 00:05:13 12° WNW visible
24 Apr 5.8 20:17:12 10° NNE 20:18:59 11° NE 20:20:46 10° ENE visible
24 Apr 3.9 21:58:18 10° NNW 22:03:19 60° NE 22:03:19 60° NE visible
24 Apr 5.9 23:43:07 10° WNW 23:44:42 15° WNW 23:44:42 15° WNW visible
25 Apr 3.9 21:37:18 10° NNW 21:42:40 53° ENE 21:42:50 53° ENE visible
25 Apr 5.6 23:21:44 10° NW 23:24:14 19° WNW 23:24:14 19° WNW visible
26 Apr 4.1 21:16:20 10° NNW 21:21:35 45° ENE 21:22:23 42° E visible
26 Apr 5.3 23:00:27 10° NW 23:03:47 24° W 23:03:47 24° W visible
27 Apr 4.4 20:55:23 10° N 21:00:30 39° ENE 21:01:58 33° E visible
27 Apr 5.0 22:39:12 10° NW 22:43:22 30° W 22:43:22 30° W visible
